Wind_Speed
44 45 45 45 45 45 44 44 44 43 43 42 41 40 39 38 37 35 34 32 30 29 29 28 26 25 24 23 23 24 28 32 36 39 41 44 46 47 47 46 46 46 46 45 45 44 43 41 40 39 38 37 37 35 34 33 31 30 28 27 25 26 25 21 24 24 20 24 25 24 26 26 26 26 25 24 22 23 23 23 26 28 27 23 19 18 19 20
45 45 46 46 46 46 45 45 45 45 45 44 43 43 42 41 40 38 37 36 34 33 32 31 30 29 28 26 25 25 26 29 32 35 37 42 44 46 47 47 48 48 48 47 47 46 45 44 43 42 41 40 39 38 36 35 33 32 30 28 27 26 26 24 26 25 22 27 28 27 28 27 27 27 26 25 24 23 24 26 27 26 23 19 16 16 17 20
46 46 46 46 46 47 46 46 46 46 46 46 45 45 45 44 43 42 40 39 38 36 35 34 33 32 31 30 29 28 27 28 30 31 33 38 41 44 46 47 48 49 49 49 48 47 47 46 46 45 43 42 41 40 38 36 35 33 32 30 29 29 30 30 31 29 29 31 30 30 29 27 27 27 25 24 23 25 25 27 27 24 21 17 14 15 16 19
46 46 46 47 47 47 47 47 47 47 47 47 47 47 47 46 46 45 43 42 41 40 38 37 36 36 35 33 32 31 30 30 30 29 30 35 38 40 43 45 47 49 50 50 49 49 48 48 47 46 45 44 43 41 39 37 36 34 34 32 31 32 33 34 35 34 33 32 31 31 30 27 27 27 25 22 22 25 26 27 26 22 19 15 13 13 15 18
46 46 47 47 47 47 48 48 48 48 48 48 48 48 48 48 48 48 46 45 44 43 42 41 40 39 38 37 35 34 33 32 32 31 31 32 34 36 38 42 45 47 49 50 50 50 50 49 48 47 47 46 44 43 41 39 37 36 36 35 35 35 33 34 36 36 35 33 32 32 31 29 27 26 25 22 20 23 26 26 24 20 16 15 13 12 14 18
46 47 47 47 48 48 48 48 48 48 48 49 49 49 49 49 49 50 49 48 47 46 45 44 43 42 41 40 39 37 36 35 35 33 33 33 33 33 34 38 42 44 47 48 50 50 50 50 50 49 48 47 46 45 43 41 41 40 40 39 39 38 36 36 37 36 36 34 33 32 31 29 28 26 25 23 20 22 24 22 21 17 13 13 12 11 13 16
48 48 48 48 49 49 49 49 49 49 49 49 50 50 50 50 50 51 51 51 50 49 48 47 46 45 44 43 42 41 39 39 38 36 36 35 34 33 33 36 38 41 44 45 47 48 49 50 51 50 49 48 47 46 45 45 44 43 43 41 41 40 40 41 39 37 36 34 33 32 31 29 28 26 25 24 23 23 21 17 16 13 11 11 11 10 12 15
50 50 50 50 51 51 50 50 50 50 50 50 50 51 51 51 51 52 52 52 52 51 51 50 49 48 47 46 45 44 43 43 41 40 39 38 36 35 34 35 36 38 41 43 44 45 46 48 50 51 51 50 49 48 47 46 46 46 45 44 43 42 42 42 41 39 37 35 34 32 31 29 27 26 25 25 24 23 20 16 13 10 10 10 9 9 11 13
52 52 52 52 52 53 53 53 52 52 52 51 51 52 52 52 53 53 53 54 54 54 53 53 52 51 50 49 48 47 47 46 45 43 42 41 39 38 37 36 36 35 38 41 41 41 43 45 47 49 49 50 49 49 48 48 47 48 47 47 46 45 44 43 41 39 38 36 34 32 31 29 28 27 26 26 24 22 19 14 10 8 8 8 8 8 9 11
54 54 54 54 54 54 55 55 55 54 54 54 54 53 53 54 54 55 55 55 56 56 56 55 55 54 53 52 51 50 49 49 48 47 45 44 42 40 39 39 38 36 36 38 40 40 40 41 42 43 45 47 48 49 49 49 49 49 49 48 47 46 45 43 41 40 38 36 33 31 30 30 29 28 27 26 24 21 17 13 9 7 6 7 8 7 8 11
57 57 56 56 57 57 57 57 57 57 57 56 56 56 55 55 56 56 56 57 57 57 57 57 57 56 56 55 53 53 52 51 52 51 49 48 46 44 42 41 40 39 37 38 39 39 37 36 36 39 41 43 46 48 47 48 48 49 48 47 47 46 44 43 41 40 38 36 33 31 30 28 28 28 26 24 22 19 15 12 9 6 4 6 8 6 8 10
59 59 59 59 59 59 59 59 59 59 59 59 59 58 58 58 58 58 58 58 58 58 59 59 59 58 58 57 56 55 54 54 54 54 53 51 50 47 45 44 43 41 40 39 39 38 36 34 34 37 38 40 44 46 44 44 46 47 47 47 46 46 44 43 42 40 38 36 34 33 30 28 27 27 25 20 20 18 15 12 10 6 4 5 7 6 7 9
62 62 62 61 61 61 61 61 61 61 61 61 61 60 60 60 60 60 60 60 60 60 60 60 60 60 60 59 59 58 56 56 56 56 56 55 53 51 49 47 46 44 43 42 40 39 37 34 34 34 35 38 40 42 43 43 45 46 46 46 45 45 44 43 42 41 39 37 36 35 31 27 26 26 23 20 20 18 16 14 10 7 4 4 6 6 6 8
66 66 66 65 65 65 64 64 64 63 63 63 63 63 62 62 63 63 63 62 62 62 62 62 62 61 61 61 61 60 59 59 58 58 58 58 56 55 53 50 49 47 45 44 42 41 39 36 35 32 33 35 35 39 42 41 42 44 43 44 44 44 43 43 42 41 39 37 36 35 30 26 25 24 21 20 20 20 18 15 12 8 5 4 4 5 5 7
70 71 70 70 70 69 69 68 67 67 66 66 66 65 65 65 65 65 65 65 65 64 64 64 64 63 63 63 63 62 61 61 61 61 60 59 59 58 56 54 52 51 48 46 44 43 42 40 37 33 35 34 32 37 40 37 39 41 40 41 43 43 42 42 42 40 38 36 35 34 30 26 24 22 20 19 21 21 19 17 13 10 7 4 3 4 5 6
73 74 74 74 74 74 73 73 72 71 71 70 69 68 68 67 67 67 67 67 67 66 66 66 66 66 65 64 65 64 63 63 63 63 62 61 62 60 59 58 56 54 52 50 47 46 44 42 40 38 37 34 33 37 36 33 35 37 37 40 40 41 41 41 40 38 36 34 33 32 29 25 23 21 20 20 22 22 20 17 14 11 8 5 3 2 4 5
73 74 75 75 76 77 77 77 77 76 75 74 74 73 72 71 70 70 69 69 69 69 69 68 68 68 67 66 66 66 65 65 65 65 64 63 63 63 63 61 60 58 55 53 50 48 46 45 43 42 40 37 36 37 33 31 33 35 37 39 39 39 39 39 38 37 36 33 32 31 28 26 23 20 20 23 24 22 20 18 15 12 9 7 3 2 2 4
72 74 75 76 77 78 78 79 79 79 79 79 78 78 77 76 74 73 73 72 72 71 71 70 70 69 69 68 68 68 67 67 67 67 66 66 65 65 65 64 63 61 59 56 54 52 49 47 46 45 43 40 39 38 35 35 37 37 40 41 40 38 36 36 36 35 34 31 31 30 28 28 26 22 22 26 26 23 21 19 16 13 10 8 5 2 1 3
70 72 73 75 76 78 79 80 80 81 81 81 82 81 81 80 79 78 77 76 75 74 74 73 72 71 70 70 70 70 70 69 69 69 68 68 68 67 67 67 66 64 62 60 58 55 52 50 48 46 46 45 45 43 41 42 40 38 42 42 38 35 33 34 33 33 32 30 29 29 28 29 30 30 29 29 27 25 22 19 17 14 11 9 6 3 1 2
71 72 73 74 75 76 78 79 80 81 82 82 83 83 83 83 83 82 82 81 80 79 78 76 76 74 72 72 72 72 72 71 71 71 71 70 70 70 69 69 69 67 65 63 62 59 57 54 49 49 51 52 50 47 46 44 39 38 42 41 36 33 33 32 31 30 29 28 28 28 28 30 32 31 28 26 27 26 22 19 17 15 13 10 6 4 2 3
73 74 75 75 76 76 77 78 79 80 81 83 83 84 85 85 85 85 85 85 84 83 82 81 79 78 76 75 75 74 74 73 73 73 73 73 72 72 71 71 71 69 67 67 66 63 61 56 52 54 56 55 53 50 48 45 40 41 43 42 36 33 32 31 30 29 28 27 27 28 29 31 32 30 26 26 29 27 22 20 19 16 14 10 7 5 2 3
75 75 76 77 77 78 79 80 80 80 81 82 83 84 85 86 86 86 86 86 86 86 86 85 84 82 80 78 78 77 76 76 75 75 75 75 75 74 73 73 72 71 71 70 68 66 63 58 57 60 59 57 55 53 50 47 45 45 44 43 38 34 32 31 29 28 27 28 29 29 30 32 33 32 30 31 31 27 23 22 20 18 15 11 8 6 3 3
76 77 78 79 79 80 81 81 82 82 82 83 83 84 84 85 86 86 87 87 87 87 87 87 87 86 85 83 82 81 80 79 77 77 77 77 77 76 75 74 74 73 74 72 70 69 66 63 63 65 62 60 58 56 54 51 49 48 47 45 41 37 34 32 30 29 31 32 31 31 32 34 33 33 33 33 31 27 24 23 21 19 15 12 11 7 5 5
76 77 78 79 80 81 82 83 83 83 84 84 85 85 85 85 85 86 86 87 87 88 88 88 88 88 88 87 86 86 84 83 81 80 80 79 79 77 76 77 76 76 76 75 73 72 70 69 70 69 66 63 61 59 58 54 52 52 50 47 45 41 37 35 34 34 34 32 30 30 31 32 33 33 34 33 31 27 25 24 22 19 15 13 12 9 8 7
76 76 77 78 78 80 81 82 83 84 84 85 86 86 86 87 87 86 86 87 86 86 88 88 88 88 89 89 89 90 89 87 85 84 83 81 80 79 79 79 79 78 78 77 76 74 73 74 74 71 68 65 63 62 60 58 56 55 52 50 49 46 41 40 38 36 35 33 33 33 32 32 33 33 33 33 30 28 26 25 22 19 16 14 12 10 9 8
73 74 75 76 76 78 79 81 82 83 84 85 86 86 87 88 88 88 87 88 86 85 87 87 87 88 89 89 91 92 92 91 90 88 87 85 83 81 81 81 81 81 80 79 78 76 75 76 76 73 71 69 67 65 63 62 60 58 55 53 52 49 45 42 39 38 39 38 37 36 34 34 34 33 33 32 31 29 27 26 23 20 18 15 14 12 10 9
68 69 71 72 73 74 76 78 79 80 81 83 85 86 87 88 88 88 88 89 86 85 87 87 86 87 87 88 91 92 93 93 93 92 91 89 87 85 84 83 83 83 83 81 79 78 77 78 78 76 75 73 70 68 67 66 63 60 59 57 55 52 48 44 40 40 43 42 40 37 34 34 33 32 33 32 31 30 28 27 25 22 20 18 17 15 12 12
62 63 64 65 67 68 70 71 73 75 78 80 82 83 84 85 86 86 87 89 86 84 87 86 86 87 87 88 90 91 93 94 94 94 94 94 92 90 88 87 85 85 85 83 81 80 80 81 80 78 78 76 73 72 71 70 65 63 63 60 57 55 51 48 44 43 45 44 40 36 33 33 33 33 34 32 31 31 30 29 28 25 23 21 19 17 15 15
56 57 58 58 60 62 64 65 67 70 72 74 76 78 79 81 82 83 85 86 85 85 86 85 86 87 87 89 90 90 92 93 95 95 96 96 96 95 93 90 88 87 86 83 83 83 83 83 83 81 80 79 78 78 76 73 68 68 68 62 59 57 55 53 48 46 46 43 38 35 34 36 36 34 34 32 32 33 32 31 30 27 24 22 22 20 18 18
51 51 52 53 55 56 58 60 62 63 65 67 68 71 73 75 77 79 80 82 82 83 84 84 85 86 87 89 90 91 92 92 94 95 97 98 98 98 97 94 92 90 88 86 85 85 85 86 85 82 82 82 83 83 81 76 73 73 70 64 63 63 60 57 52 50 47 42 38 37 37 38 37 34 34 33 34 34 33 32 31 28 25 24 24 22 21 19
46 47 48 49 50 51 53 55 57 57 58 60 62 64 65 68 70 72 74 77 78 79 80 81 83 84 86 88 89 91 92 93 93 94 96 98 99 99 99 99 98 95 92 89 87 87 88 88 86 83 83 84 85 85 83 78 76 76 72 68 68 67 64 61 56 52 47 41 42 42 41 41 38 36 37 36 36 36 34 33 32 29 28 27 26 24 22 19
41 43 44 45 46 48 50 52 53 53 54 55 57 58 59 61 63 65 68 70 72 74 77 78 79 80 83 85 87 89 92 93 94 95 95 97 99 100 101 102 100 98 96 93 91 91 90 89 88 86 85 87 87 87 85 81 79 79 76 72 72 71 67 62 57 53 48 45 46 46 45 43 40 40 41 40 39 38 36 36 35 33 31 29 27 25 24 21
39 40 41 43 45 47 48 49 50 50 51 53 54 55 55 56 57 60 62 64 65 69 71 73 74 77 79 81 84 88 90 92 94 96 96 97 98 100 102 103 101 100 100 99 96 95 93 90 90 90 89 89 90 88 86 83 81 82 80 76 75 75 70 64 60 56 52 51 52 50 49 46 43 45 45 42 42 42 40 40 38 36 34 31 29 28 26 24
37 38 40 43 45 47 48 49 49 49 50 52 53 52 53 53 54 55 57 58 60 63 66 68 70 72 74 77 80 85 88 90 93 96 98 99 99 100 102 102 101 101 103 102 100 98 95 93 92 92 90 90 91 90 88 87 85 86 84 81 79 78 74 69 65 61 58 57 57 55 52 48 47 48 48 46 46 45 44 43 42 40 37 34 31 30 28 26
36 38 41 44 47 47 48 48 48 48 48 50 50 50 50 50 50 51 52 54 55 57 61 63 65 68 70 72 76 81 85 87 92 96 98 101 102 101 101 100 100 103 104 104 103 101 100 98 95 93 93 93 94 93 91 90 90 90 89 86 82 81 78 74 70 67 64 62 61 59 55 52 52 52 53 50 47 47 47 46 46 43 39 36 33 31 31 29
37 40 42 45 47 47 47 47 47 47 47 47 46 46 46 45 46 47 47 48 50 52 55 58 61 65 66 69 72 77 81 85 89 94 97 100 103 102 100 100 101 103 104 105 104 104 103 102 100 98 96 95 95 96 95 93 93 93 92 89 84 83 83 79 74 71 69 65 63 61 59 58 55 55 56 52 48 50 52 50 49 46 41 38 37 35 34 32
39 41 43 45 46 46 46 46 45 45 44 44 43 42 42 41 41 43 43 44 45 47 49 52 56 60 63 66 69 72 78 83 85 91 96 99 101 101 101 102 103 103 104 105 105 105 105 105 105 102 98 95 95 97 97 95 94 95 95 92 88 87 87 83 77 75 72 68 65 63 62 60 57 56 57 54 51 54 56 54 52 48 44 42 40 38 37 35
41 41 42 43 44 44 44 43 42 42 41 40 39 38 37 37 38 39 40 41 42 43 45 46 50 55 58 61 65 69 75 79 81 88 94 97 99 101 102 104 105 104 104 104 106 107 106 107 107 103 99 97 96 98 98 97 96 98 98 96 92 91 91 86 80 77 74 71 69 68 66 63 60 59 59 58 58 59 59 57 54 50 47 45 43 41 39 38
41 41 42 43 43 43 41 39 38 38 37 36 36 35 34 34 35 36 37 39 40 41 42 43 45 49 53 56 61 65 71 76 78 85 92 94 97 99 102 105 106 107 106 105 107 107 105 107 108 105 103 103 101 101 101 99 99 100 99 97 94 93 92 88 83 80 78 76 72 71 70 66 63 62 61 63 64 62 61 58 55 52 50 48 46 43 42 41
41 41 42 42 42 40 38 36 35 35 34 33 33 33 32 32 32 34 35 36 37 37 39 41 43 45 48 52 56 60 66 73 77 82 88 92 94 97 101 104 106 108 108 108 108 106 105 108 109 107 107 108 107 104 102 101 100 100 99 96 94 94 93 90 87 84 82 80 75 74 72 68 66 66 65 68 68 65 63 61 57 55 54 51 49 46 45 43
41 41 40 39 38 36 34 33 32 31 30 30 30 30 30 29 29 31 32 32 34 35 36 39 40 42 45 49 51 54 61 68 73 78 84 89 92 95 100 103 105 108 110 110 111 109 108 108 109 108 109 110 110 108 105 103 102 101 102 99 96 95 94 94 91 87 84 82 79 77 75 73 72 69 67 70 71 67 66 65 61 59 57 55 52 49 48 46
40 39 36 34 33 32 31 31 30 28 27 27 28 29 28 27 26 28 29 29 30 32 33 35 38 40 43 46 49 51 56 63 69 75 80 85 90 94 98 101 104 107 110 113 114 113 110 108 107 108 110 111 112 111 109 108 106 106 107 105 101 99 99 98 95 90 88 86 82 80 79 79 75 68 67 70 71 71 70 68 64 62 61 58 55 52 51 48
37 34 32 30 29 29 29 29 27 26 25 25 26 27 26 25 24 25 26 27 28 30 31 33 36 37 40 44 48 49 53 59 65 71 77 81 87 91 95 100 104 107 110 114 116 114 110 108 107 108 111 111 111 112 112 111 111 109 108 106 102 100 100 99 96 94 93 90 87 84 82 81 76 69 69 71 73 75 73 70 68 65 63 60 56 54 53 49
34 30 28 27 27 27 27 26 25 24 24 24 25 25 24 23 23 23 24 26 28 29 31 33 35 36 38 42 46 48 51 56 61 67 73 77 83 87 91 98 104 106 108 112 113 113 112 111 110 109 111 111 111 112 113 113 112 109 106 104 100 99 100 99 98 98 97 93 90 87 84 82 77 71 70 72 76 79 77 74 73 69 65 62 59 56 54 49
32 29 27 26 26 26 25 24 23 23 23 24 24 23 22 22 22 23 25 26 28 29 32 34 35 36 37 39 43 47 50 54 58 64 69 72 77 81 85 94 101 104 106 109 111 112 114 114 113 112 112 111 111 114 116 116 115 113 110 106 103 103 103 102 101 100 97 93 92 90 87 85 81 75 72 75 80 84 83 79 76 71 67 65 61 58 54 50
32 29 27 26 26 25 24 23 22 21 22 23 23 22 22 22 22 24 26 27 29 30 32 35 35 36 37 38 41 44 47 52 57 61 64 67 71 74 80 88 96 101 104 107 110 111 113 114 114 114 113 111 111 115 117 118 119 119 116 111 108 108 107 106 105 100 96 95 94 92 90 89 87 81 76 79 86 89 86 81 76 71 67 63 60 57 53 51
32 30 27 26 26 25 24 23 22 21 21 22 22 22 22 22 22 24 26 28 29 31 32 34 35 35 36 37 38 41 44 49 55 58 60 62 64 68 74 82 90 95 99 105 108 109 111 114 115 116 115 114 115 116 116 117 119 120 117 113 112 112 110 109 106 100 96 96 94 92 92 91 88 83 79 83 91 91 85 79 75 72 70 66 63 59 56 56
33 31 28 26 25 24 24 23 22 21 21 22 22 22 21 21 22 23 26 27 28 30 31 33 34 34 34 35 36 38 40 46 52 55 56 57 59 62 68 75 83 89 94 100 105 107 110 112 115 117 117 117 118 117 115 115 118 120 118 116 116 115 113 109 104 100 99 98 94 93 95 93 89 87 85 85 89 87 81 77 75 74 72 69 66 64 61 61
33 31 28 26 24 23 23 22 21 21 21 21 21 21 20 20 21 23 24 26 27 28 29 30 32 33 33 34 34 35 36 41 47 52 53 53 53 57 62 69 76 83 89 95 100 104 108 110 113 116 117 119 119 116 113 114 116 119 119 119 119 117 113 107 103 102 101 99 97 97 97 94 93 93 87 82 83 83 79 77 77 75 73 70 68 66 64 63
33 31 29 26 24 22 22 21 21 20 21 21 21 21 20 20 21 22 23 24 24 26 27 28 30 32 33 33 33 34 34 36 42 48 50 50 49 52 57 63 70 76 83 90 95 101 105 109 113 116 117 119 118 115 114 115 116 118 119 121 121 118 113 107 103 102 100 98 98 99 97 95 94 93 84 77 82 86 82 81 80 78 75 72 70 68 66 64
33 31 28 26 23 22 21 21 20 20 20 21 21 20 20 20 20 21 21 21 22 23 24 26 28 32 33 32 32 33 32 33 37 43 47 47 46 49 54 59 65 71 77 84 91 97 101 106 111 115 116 118 118 117 118 118 119 119 120 121 122 118 113 110 107 105 102 100 99 98 97 95 94 91 81 77 86 90 86 84 83 80 78 74 71 70 68 67
32 30 27 25 23 21 20 20 20 20 20 21 21 21 20 21 21 20 20 21 21 21 23 24 27 30 32 32 31 32 32 30 33 38 43 44 43 46 51 55 60 67 72 79 85 91 96 101 108 112 114 117 119 120 121 122 124 123 120 120 120 117 114 113 112 109 106 103 102 99 97 96 94 91 83 81 88 91 85 84 84 82 80 76 72 70 68 66
Wind_Direction
250 250 250 249 250 250 250 249 249 249 250 250 251 251 251 250 250 249 247 243 240 238 235 231 228 223 221 224 229 229 227 226 226 226 227 227 229 230 230 230 230 230 231 231 232 232 232 232 232 232 232 232 232 233 233 233 233 232 232 233 236 243 248 248 250 250 254 262 265 268 274 279 282 285 288 290 293 298 302 306 309 313 317 313 308 317 332 344
251 251 251 250 250 250 250 249 249 248 249 249 249 250 250 250 249 248 248 246 242 239 237 234 231 227 224 223 225 230 232 230 227 226 228 228 228 230 230 230 231 232 232 232 233 233 233 234 234 233 233 232 232 232 233 232 233 233 233 232 233 240 247 247 248 248 248 256 264 270 273 277 282 284 287 292 295 300 303 307 311 315 315 307 306 320 338 348
252 252 252 251 251 251 250 250 249 249 248 248 248 248 249 249 249 249 248 247 245 242 238 236 234 231 227 225 224 226 230 233 231 227 229 230 229 230 231 231 232 233 233 233 233 233 234 235 235 234 234 233 233 232 233 233 233 234 233 232 233 238 243 246 248 251 252 255 262 267 270 275 278 281 287 292 296 300 304 308 311 314 311 303 306 324 344 352
253 253 253 252 252 252 251 251 250 249 248 248 247 247 247 248 248 248 248 247 246 244 241 238 235 234 231 227 226 226 227 232 233 230 230 231 229 230 231 231 231 233 234 234 234 234 235 236 236 237 237 236 235 235 234 234 234 235 234 233 233 237 241 246 249 252 254 257 261 265 268 271 273 279 286 290 297 301 305 308 310 312 306 299 307 330 351 356
254 254 254 254 253 252 252 251 250 249 249 248 247 247 246 246 247 247 247 247 247 246 244 241 237 235 233 230 228 228 228 230 231 231 232 233 230 229 231 232 232 232 233 234 235 235 236 237 237 238 238 238 238 237 237 236 237 237 237 234 234 237 242 247 249 250 254 256 260 263 267 270 273 279 284 288 294 297 302 306 307 309 301 295 307 335 356 359
256 255 254 254 254 253 252 251 251 250 249 248 248 247 246 245 246 246 246 246 247 247 245 244 241 237 234 232 230 229 229 231 231 230 231 234 232 229 230 232 232 232 232 234 235 235 237 237 238 238 239 240 239 239 238 238 238 238 238 236 236 237 240 246 249 250 253 256 259 262 266 269 273 278 281 286 288 291 299 301 302 302 292 293 310 339 360 2
257 257 256 255 255 254 253 252 251 250 249 248 247 247 246 245 245 245 245 245 245 246 246 245 243 241 237 234 232 230 230 231 230 230 230 232 233 231 231 232 233 233 233 233 234 235 236 237 238 239 239 240 240 240 240 240 240 240 240 240 240 240 240 244 248 250 253 256 259 263 266 269 272 276 280 285 288 292 296 292 294 293 284 293 312 341 3 6
258 257 256 256 255 255 254 253 252 251 250 248 247 247 246 245 244 244 244 244 244 244 245 245 244 243 241 237 234 232 232 232 230 230 230 230 231 232 233 233 233 234 234 232 232 234 235 236 237 238 239 240 240 241 241 241 241 242 242 242 242 243 243 245 248 250 253 256 259 263 266 268 271 274 278 283 287 290 291 285 282 277 279 295 312 342 7 11
258 257 256 256 255 255 254 253 252 252 250 249 247 246 246 245 244 244 243 243 243 243 243 244 244 243 242 240 237 234 233 233 231 230 230 230 230 231 233 235 234 234 236 234 231 232 234 235 237 239 239 240 241 241 241 241 241 242 242 243 243 244 245 246 248 251 253 256 259 263 266 267 270 273 277 280 285 286 284 276 264 262 278 298 314 341 6 15
258 257 256 255 255 254 253 253 252 251 250 249 248 246 245 244 244 243 243 242 242 242 242 242 242 242 241 240 239 237 235 234 233 230 230 229 229 230 231 233 235 234 236 237 233 231 232 234 236 238 239 240 240 240 241 241 242 242 243 243 244 245 246 247 249 251 253 255 258 262 265 267 269 271 275 278 281 280 272 259 245 250 274 296 310 335 4 18
259 258 257 256 255 254 253 253 252 251 250 249 248 247 246 244 244 243 242 242 241 241 241 241 241 241 241 240 239 238 237 236 234 231 231 230 228 229 230 231 233 234 235 238 236 231 229 232 233 235 237 237 238 239 240 241 242 242 243 243 244 245 246 247 248 250 251 253 254 256 259 263 266 269 273 274 274 269 255 237 229 238 260 290 305 329 0 19
260 259 258 257 256 255 254 253 253 252 251 250 249 247 246 245 244 243 242 242 241 241 240 240 240 240 240 239 238 238 237 237 236 233 231 231 228 227 229 230 231 232 234 236 238 234 228 228 230 233 234 236 238 238 237 239 240 241 242 242 243 244 245 246 247 248 249 250 251 251 254 259 263 267 270 266 261 254 235 219 216 223 240 283 302 322 356 16
261 260 259 258 257 256 255 254 253 253 252 251 250 248 247 246 245 244 243 242 241 241 240 239 239 239 238 238 238 237 236 237 237 235 233 231 230 227 227 229 230 231 232 233 236 236 230 225 227 230 232 234 237 238 236 236 238 239 240 241 242 243 244 245 246 247 248 249 250 251 251 254 259 263 263 258 251 238 220 209 207 210 222 265 297 316 348 12
260 260 259 258 258 257 256 255 254 253 252 252 251 250 249 248 247 245 244 243 242 241 240 239 238 238 238 237 237 236 236 236 236 236 234 232 231 229 227 227 228 230 230 232 233 236 233 227 224 226 230 232 233 237 236 235 237 238 239 240 240 241 242 243 244 245 246 247 248 250 249 248 251 254 252 248 241 227 211 201 200 201 208 241 288 312 344 8
260 259 259 258 257 257 256 255 254 253 253 252 251 250 249 249 248 247 246 244 243 242 241 240 239 238 237 237 236 235 235 235 235 235 234 234 232 230 229 227 227 228 229 230 231 233 234 231 226 223 227 229 228 235 237 234 236 238 237 237 238 239 240 242 243 244 244 245 245 247 245 240 241 243 242 239 230 218 207 198 194 196 198 216 269 311 343 4
260 260 259 258 258 257 256 255 254 254 253 252 251 250 249 249 248 248 247 246 244 243 242 241 240 239 237 237 236 235 235 234 235 235 234 234 234 231 229 228 228 227 226 228 229 231 232 232 229 225 226 226 226 233 235 233 235 235 234 235 236 237 238 240 241 241 240 239 241 242 241 234 229 229 232 230 219 210 205 197 192 194 193 202 239 301 338 355
260 260 259 258 258 257 256 256 255 254 253 252 251 250 249 249 248 248 247 246 246 244 243 242 241 240 238 237 237 236 235 234 234 234 234 233 234 233 230 228 228 227 226 226 227 229 230 231 231 229 227 225 226 230 230 230 231 231 232 233 233 234 235 237 238 238 237 235 236 237 233 226 220 221 226 221 211 204 202 197 191 191 191 195 219 272 331 349
259 259 259 258 258 258 257 256 256 255 254 253 252 251 250 249 248 247 247 246 246 245 244 243 242 240 240 239 238 236 235 234 234 234 234 233 233 233 232 229 228 228 227 225 225 226 227 229 230 231 231 228 228 229 226 225 226 229 232 231 230 230 231 234 234 236 236 232 231 231 226 218 210 209 217 215 207 201 198 197 192 189 188 191 206 225 300 341
260 259 259 258 258 257 257 256 256 255 254 254 253 252 251 249 248 247 247 246 246 245 244 244 243 241 240 240 239 237 236 235 234 234 234 233 232 232 232 230 228 227 227 226 225 224 225 226 227 230 232 230 227 225 225 226 227 230 234 232 229 228 228 231 232 233 234 229 225 223 218 211 204 203 210 210 204 200 196 195 193 190 189 190 195 203 242 316
260 260 259 259 258 258 257 256 256 255 254 254 253 252 251 250 249 248 247 246 245 245 244 244 243 242 240 240 240 238 237 236 235 234 234 233 232 231 232 231 229 227 227 227 226 223 223 224 224 227 230 230 227 225 226 228 228 231 236 235 229 226 226 226 228 228 228 225 220 217 212 205 201 201 204 207 206 200 194 194 195 193 191 190 189 191 220 291
260 260 259 259 259 258 258 257 256 255 255 254 253 253 252 251 250 249 247 247 245 245 244 243 243 242 241 240 240 239 238 236 235 234 234 233 233 232 231 231 230 229 227 227 226 224 223 221 223 226 228 229 229 227 226 228 227 229 235 238 231 225 225 224 223 222 220 217 215 213 207 201 200 198 198 207 209 200 191 193 196 194 192 189 187 189 216 288
260 259 259 258 258 258 258 257 257 256 256 255 254 253 252 251 250 249 248 247 246 245 244 243 243 242 241 240 240 239 238 237 236 235 234 233 233 232 231 231 230 229 228 227 226 225 223 221 223 226 226 227 229 228 227 226 225 228 233 237 233 226 223 222 222 221 217 213 210 207 202 199 200 197 197 204 206 198 193 194 196 196 190 186 191 191 207 273
260 259 258 258 258 257 257 257 257 256 256 255 255 254 253 252 251 250 249 247 247 246 245 244 243 242 242 241 240 239 239 237 236 236 234 233 233 232 232 231 230 229 229 228 226 225 224 223 224 224 223 225 227 228 228 225 224 226 229 233 233 226 218 216 217 217 215 211 206 204 202 199 199 199 199 203 202 198 196 197 199 195 186 186 194 189 200 245
261 260 259 259 258 258 258 257 257 257 256 256 256 255 255 254 252 251 250 248 247 246 246 244 243 242 241 241 240 240 239 238 236 236 235 233 233 232 232 232 230 229 228 228 227 225 224 224 224 223 222 223 224 226 227 226 224 226 227 229 231 228 218 212 211 214 215 212 206 206 206 202 200 201 201 202 201 198 198 200 202 196 188 189 193 191 201 229
263 263 262 262 261 261 261 260 259 259 258 257 257 256 256 255 254 253 251 250 248 247 246 245 244 243 241 241 240 240 239 238 237 236 236 234 233 232 232 232 231 229 228 227 227 225 224 224 225 223 223 223 223 225 227 226 225 226 226 227 229 228 221 213 209 212 216 212 208 207 206 206 204 203 205 203 200 199 200 203 203 199 194 193 193 198 206 224
266 265 265 265 264 264 263 263 262 261 260 260 258 257 256 255 255 253 252 251 249 247 247 245 244 243 242 241 240 240 239 238 237 237 236 235 233 232 232 231 231 230 228 227 226 226 225 225 225 224 223 222 222 224 225 226 226 226 226 226 228 228 225 217 208 211 216 213 210 206 204 206 204 205 208 205 202 202 203 205 205 202 198 197 198 204 210 221
268 268 267 267 266 265 265 265 264 263 263 261 260 259 258 256 256 254 254 252 250 248 248 246 244 243 242 241 240 239 239 238 237 237 236 235 234 233 231 231 231 230 229 227 225 225 225 226 225 224 224 223 222 223 224 225 225 226 227 226 227 228 227 222 212 212 217 214 210 205 204 208 207 208 210 206 204 205 205 207 207 206 200 198 201 206 212 220
269 269 268 268 268 267 266 265 264 264 263 262 261 261 260 259 258 256 255 254 251 249 248 246 244 243 241 240 240 239 238 238 237 237 236 235 234 233 232 231 230 230 229 227 225 224 224 225 225 224 224 223 223 223 223 224 223 225 227 225 227 227 227 226 218 214 217 213 208 203 203 210 212 213 210 206 207 207 207 208 208 208 203 199 203 207 215 224
269 269 269 269 268 268 267 266 265 264 263 263 262 262 261 260 259 258 257 255 253 250 249 247 245 243 241 239 239 238 237 237 237 236 235 235 234 234 233 231 230 230 229 228 226 225 224 225 224 223 224 223 223 223 223 222 222 224 226 224 226 227 227 227 221 217 216 211 207 204 205 212 214 216 212 208 210 211 209 209 210 210 206 204 205 206 214 224
271 271 271 270 269 269 269 269 267 266 266 265 264 263 261 260 259 259 258 256 254 252 250 247 245 243 241 239 238 237 237 236 235 235 235 234 233 233 233 231 230 230 229 227 227 226 225 225 225 223 224 223 223 224 223 221 221 223 224 223 224 226 225 224 221 218 214 208 208 208 209 213 214 217 218 214 214 215 213 212 212 211 209 209 209 208 215 222
274 274 273 273 273 273 273 272 271 271 270 268 267 265 263 261 260 259 258 256 255 254 251 248 245 243 241 239 237 236 236 235 235 234 234 234 233 233 232 231 230 229 228 227 226 226 225 225 224 223 223 225 225 225 224 222 222 223 223 222 224 225 224 222 220 217 212 210 214 212 212 213 211 215 220 220 219 218 215 214 213 211 209 211 212 213 220 225
278 278 278 278 278 277 276 276 276 276 275 273 271 268 265 263 261 260 258 256 255 254 252 249 246 244 241 239 237 236 235 234 234 233 233 233 233 232 232 231 230 229 228 227 226 226 226 224 224 222 222 224 225 225 225 223 222 224 223 221 224 226 224 221 220 217 214 217 220 217 215 213 211 216 218 219 222 220 217 217 215 212 210 212 214 214 221 227
284 284 284 282 281 281 281 281 281 280 280 278 275 272 269 266 264 261 259 257 255 254 252 250 247 244 241 239 237 236 234 233 232 232 232 232 232 232 231 230 229 229 229 227 225 226 226 224 224 222 221 223 224 224 224 223 222 224 224 221 223 226 225 222 221 219 217 219 222 221 216 212 214 219 218 219 222 222 220 219 217 215 212 213 216 216 218 223
290 288 286 285 285 285 285 285 285 284 282 280 278 276 273 270 266 263 260 258 255 253 252 250 247 245 242 239 237 236 234 232 231 231 231 231 230 230 231 230 229 228 229 228 226 225 226 225 224 223 221 222 224 224 223 222 221 223 223 221 221 224 224 222 221 220 219 218 221 221 217 214 218 222 220 219 222 224 224 223 222 219 215 214 218 219 220 221
292 290 289 289 290 290 290 289 288 286 283 281 279 277 274 271 268 265 262 259 255 253 251 249 247 245 242 239 237 235 233 232 231 230 230 230 229 229 229 230 229 228 228 227 226 225 225 225 224 224 222 221 223 223 222 222 221 222 223 221 220 223 224 222 220 220 220 218 219 220 219 218 220 222 222 218 220 225 226 226 226 223 217 215 217 219 220 222
295 294 293 293 292 293 292 291 290 288 285 282 280 277 275 272 269 267 263 260 257 253 251 249 247 245 242 239 237 235 233 231 230 230 229 229 229 228 227 228 229 228 227 227 226 225 224 224 223 223 222 221 222 223 222 222 222 222 223 221 220 222 224 221 219 220 220 219 219 220 221 221 220 223 224 220 219 226 227 226 227 225 222 218 217 219 221 224
298 297 295 294 294 294 294 293 291 288 285 282 280 277 275 273 270 268 265 262 259 255 252 249 247 245 242 240 238 235 233 230 229 230 229 228 228 228 226 227 227 228 227 226 226 225 224 224 223 222 222 221 221 223 223 222 222 223 223 222 219 220 223 221 219 219 220 219 219 221 223 224 222 224 227 223 221 226 227 226 227 227 225 223 222 221 223 225
301 299 297 296 296 295 295 293 290 287 284 282 280 277 275 273 270 268 266 264 261 258 255 250 248 245 242 240 238 236 234 231 228 230 229 227 227 227 226 226 226 226 227 226 225 224 224 224 224 222 222 222 222 223 224 223 222 224 224 222 220 220 221 221 219 218 219 219 219 219 221 223 223 224 228 227 224 226 228 227 227 228 227 226 226 225 225 226
303 302 301 299 298 297 295 292 289 286 284 282 280 278 275 273 270 267 265 263 260 259 257 253 250 247 244 240 238 236 236 233 229 229 230 227 226 226 225 225 225 225 225 226 225 223 223 224 224 222 221 222 221 222 223 222 222 224 225 223 222 221 222 221 219 218 219 220 219 219 220 221 222 223 227 229 227 226 229 229 228 229 229 228 228 227 228 229
305 304 303 301 299 298 295 291 288 286 284 282 280 278 275 272 269 266 263 261 259 258 257 255 252 250 247 243 239 237 237 235 230 229 229 227 225 225 225 225 224 224 224 225 225 223 221 223 223 221 220 221 221 221 222 222 222 223 225 224 223 223 223 222 220 218 218 219 219 219 219 220 222 221 224 229 229 227 229 230 228 229 230 229 229 229 230 231
307 306 304 301 299 296 293 290 287 285 283 282 279 277 275 272 269 267 264 262 260 258 257 256 254 252 250 247 242 238 237 236 234 231 230 228 225 224 224 225 224 224 224 224 225 223 221 221 221 221 220 220 221 221 221 222 221 222 223 223 221 222 222 222 221 219 219 220 220 219 218 219 221 221 223 228 230 229 229 230 229 229 230 230 229 229 230 231
308 307 304 301 297 293 291 289 287 286 283 281 278 275 274 272 270 268 266 263 262 261 259 258 256 254 253 250 246 242 239 238 236 233 231 228 226 224 223 224 224 223 223 223 223 223 221 220 220 221 221 220 220 220 220 221 221 221 222 221 219 220 221 221 220 219 219 220 221 220 219 219 220 220 223 228 231 230 230 230 230 229 230 230 229 229 230 230
311 309 306 301 297 293 292 291 289 287 284 280 276 275 274 274 272 272 270 268 266 264 263 262 259 256 255 253 250 246 243 240 238 236 232 229 227 225 223 224 223 223 223 222 222 222 221 220 219 220 221 220 220 220 221 221 221 221 221 222 220 220 221 221 220 219 219 219 220 220 220 220 219 218 222 227 230 230 229 230 230 229 229 230 230 230 231 231
315 314 309 303 299 296 295 294 292 289 284 279 276 276 277 277 278 278 278 275 272 270 268 266 263 260 256 255 253 250 247 244 241 238 235 231 229 226 223 224 224 223 223 223 222 221 221 221 219 219 220 219 218 220 220 221 223 222 222 222 221 221 222 222 220 220 219 218 220 220 220 221 219 218 222 227 230 230 228 228 229 228 228 229 229 229 230 230
319 317 312 304 300 298 297 295 292 287 282 278 276 277 279 281 284 285 284 282 279 276 274 271 268 265 260 257 255 253 251 248 245 241 238 234 230 228 225 225 226 224 223 223 222 221 220 220 220 219 219 218 218 218 219 219 221 222 221 221 220 220 221 221 221 220 219 219 220 220 220 221 219 217 220 226 230 230 227 225 227 228 228 229 230 230 230 229
321 318 313 307 302 299 298 296 292 285 279 275 274 276 279 283 287 289 288 285 282 279 276 273 271 268 264 260 257 255 253 252 249 245 241 237 233 229 226 226 227 226 224 223 222 221 220 220 220 219 219 218 218 218 219 218 219 220 219 219 219 220 220 220 220 219 218 218 219 220 220 221 220 217 218 224 229 230 228 225 225 227 229 230 232 232 231 231
322 318 313 307 303 300 298 296 292 284 277 272 272 273 277 282 287 289 288 284 280 278 276 274 273 271 268 264 260 257 255 254 253 249 245 240 235 231 228 227 227 226 225 225 223 221 220 220 220 220 219 218 217 218 218 218 219 220 219 218 219 219 219 220 220 218 217 218 218 219 220 221 221 218 218 224 229 231 230 228 225 226 227 228 229 230 228 228
321 318 314 309 304 301 298 295 291 284 277 272 271 272 276 281 287 288 286 282 278 276 276 276 276 275 272 268 264 260 257 255 255 253 249 243 238 232 229 228 227 226 225 225 224 223 221 219 219 220 219 218 218 217 217 218 219 220 220 219 219 219 219 219 219 217 216 216 217 218 220 220 220 219 218 223 230 232 232 231 227 225 226 226 227 228 227 228
322 318 314 309 304 299 296 292 288 282 277 273 273 273 276 282 287 288 286 281 279 277 278 281 282 281 278 275 271 265 259 256 256 255 252 247 240 234 230 228 228 226 224 224 224 223 222 220 219 219 220 220 219 217 217 218 219 219 219 219 219 219 219 219 218 218 217 216 216 217 219 219 220 220 218 220 229 233 232 232 230 226 225 225 226 227 228 230
323 320 316 311 306 300 295 290 286 282 277 275 275 276 280 284 288 289 286 284 284 284 285 288 290 289 286 283 280 274 266 259 256 255 253 249 243 236 231 228 227 226 224 224 223 222 222 220 219 219 219 220 219 217 216 217 219 219 219 219 219 219 218 218 218 219 218 217 217 217 218 219 220 222 218 218 227 231 230 231 231 228 225 223 224 226 227 230
325 322 318 314 308 301 295 290 285 281 277 276 277 280 284 287 289 291 289 289 291 292 293 295 297 295 292 289 287 282 274 264 257 256 254 250 243 238 232 227 225 225 224 223 222 222 221 220 220 219 218 219 219 218 216 216 218 219 219 219 219 218 217 216 217 218 218 217 218 218 219 218 220 220 216 216 225 230 229 230 231 230 226 221 221 224 225 227
327 324 319 315 310 302 296 290 285 280 277 276 278 281 286 288 290 293 293 293 295 297 300 301 301 300 298 294 292 288 280 269 259 255 255 251 244 238 233 228 224 224 223 222 222 221 220 219 219 219 218 218 219 218 217 216 216 217 218 218 218 217 216 216 216 216 216 216 216 217 218 218 219 219 214 214 224 228 228 229 231 231 229 222 219 222 223 225
Height
10933 10934 10935 10936 10937 10938 10939 10940 10941 10943 10944 10945 10946 10947 10949 10950 10951 10952 10954 10955 10957 10958 10959 10960 10961 10963 10964 10965 10965 10966 10966 10967 10968 10970 10971 10972 10973 10975 10977 10979 10980 10982 10983 10984 10986 10988 10991 10993 10996 10998 11001 11004 11007 11009 11012 11015 11018 11020 11021 11023 11024 11021 11021 11024 11023 11024 11025 11021 11020 11023 11023 11024 11025 11025 11025 11025 11025 11023 11022 11022 11020 11017 11015 11010 11006 11004 11001 10998
10928 10929 10930 10931 10932 10933 10934 10936 10937 10938 10940 10941 10942 10943 10945 10946 10947 10948 10949 10951 10953 10954 10955 10957 10958 10959 10961 10962 10963 10963 10964 10964 10965 10967 10968 10968 10970 10972 10973 10976 10977 10978 10979 10981 10983 10985 10988 10990 10992 10994 10997 11000 11003 11006 11009 11013 11015 11017 11019 11021 11021 11019 11019 11021 11020 11021 11023 11020 11019 11021 11021 11023 11023 11023 11023 11023 11022 11021 11020 11019 11017 11015 11013 11009 11005 11003 11001 10998
10923 10924 10925 10926 10927 10928 10929 10931 10932 10933 10935 10936 10938 10939 10940 10941 10943 10944 10945 10947 10948 10950 10951 10953 10954 10956 10957 10959 10960 10960 10961 10961 10962 10964 10964 10965 10967 10968 10970 10972 10973 10974 10976 10977 10980 10982 10984 10986 10988 10990 10993 10996 10999 11003 11006 11010 11012 11015 11016 11018 11019 11019 11017 11018 11017 11018 11020 11019 11019 11020 11021 11023 11022 11021 11022 11022 11021 11019 11018 11017 11015 11013 11011 11007 11005 11003 11000 10998
10919 10920 10920 10921 10922 10923 10924 10925 10927 10928 10930 10932 10933 10934 10936 10937 10938 10939 10940 10942 10943 10945 10947 10948 10950 10952 10953 10955 10956 10957 10958 10958 10959 10961 10961 10961 10963 10965 10966 10968 10969 10970 10972 10974 10976 10978 10980 10982 10985 10988 10990 10993 10997 11000 11003 11007 11010 11012 11013 11016 11017 11016 11016 11015 11015 11016 11017 11018 11019 11018 11019 11021 11020 11019 11020 11021 11021 11017 11016 11015 11013 11012 11009 11006 11005 11002 10999 10997
10914 10915 10915 10916 10916 10918 10919 10920 10921 10923 10925 10926 10927 10929 10931 10932 10933 10934 10935 10937 10939 10940 10942 10944 10945 10947 10949 10951 10952 10954 10955 10955 10955 10957 10958 10958 10960 10962 10963 10964 10965 10966 10968 10971 10973 10975 10977 10979 10982 10984 10986 10989 10993 10996 11000 11004 11006 11008 11009 11012 11012 11013 11015 11013 11012 11014 11015 11016 11017 11016 11017 11018 11018 11018 11018 11020 11021 11018 11016 11014 11011 11010 11009 11006 11004 11001 10999 10997
10908 10909 10910 10910 10911 10912 10913 10914 10915 10917 10919 10920 10921 10923 10925 10926 10928 10929 10930 10932 10933 10935 10937 10938 10940 10942 10944 10946 10948 10950 10951 10951 10952 10953 10954 10955 10957 10959 10960 10960 10961 10963 10965 10967 10969 10971 10973 10976 10978 10980 10983 10986 10988 10992 10996 10999 11001 11003 11004 11007 11008 11010 11012 11010 11009 11011 11012 11014 11014 11014 11015 11016 11016 11016 11016 11017 11019 11018 11016 11014 11010 11009 11008 11006 11003 11001 10999 10997
10902 10903 10904 10904 10905 10906 10907 10908 10909 10911 10913 10914 10915 10916 10918 10920 10922 10923 10924 10926 10928 10929 10931 10933 10935 10937 10939 10941 10943 10945 10947 10947 10948 10950 10951 10952 10953 10955 10956 10956 10958 10959 10961 10963 10965 10968 10970 10972 10973 10976 10979 10981 10984 10987 10991 10993 10996 10998 10999 11002 11004 11006 11008 11006 11006 11009 11010 11011 11012 11012 11013 11013 11013 11014 11014 11014 11015 11015 11014 11013 11009 11008 11008 11006 11003 11001 10999 10997
10895 10896 10897 10898 10899 10899 10900 10902 10903 10904 10906 10907 10909 10910 10912 10914 10915 10917 10918 10919 10921 10923 10925 10927 10929 10931 10934 10936 10938 10940 10941 10942 10944 10946 10947 10948 10950 10952 10953 10953 10955 10956 10957 10960 10962 10964 10966 10967 10969 10972 10974 10977 10979 10982 10985 10988 10991 10993 10995 10997 10999 11001 11003 11003 11004 11006 11008 11008 11009 11010 11010 11011 11011 11012 11012 11012 11012 11011 11011 11010 11008 11007 11007 11005 11003 11001 10999 10998
10888 10889 10890 10891 10892 10892 10893 10894 10896 10897 10899 10900 10902 10903 10905 10906 10908 10910 10911 10913 10915 10916 10918 10920 10923 10925 10927 10929 10932 10935 10936 10937 10939 10941 10942 10944 10946 10948 10950 10950 10951 10953 10954 10956 10959 10961 10962 10964 10966 10968 10971 10973 10975 10977 10980 10983 10985 10987 10989 10991 10994 10996 10998 10999 11002 11003 11004 11006 11007 11008 11008 11008 11009 11009 11009 11009 11009 11009 11008 11008 11007 11006 11006 11005 11003 11001 10999 10998
10880 10882 10883 10884 10884 10885 10886 10886 10888 10889 10891 10892 10894 10896 10897 10899 10901 10902 10904 10906 10908 10909 10911 10914 10916 10918 10920 10923 10926 10928 10930 10932 10934 10936 10937 10939 10942 10944 10945 10947 10948 10950 10951 10952 10955 10957 10959 10962 10964 10965 10967 10968 10970 10972 10975 10977 10979 10981 10984 10986 10989 10991 10993 10996 10998 10999 11001 11002 11004 11006 11005 11005 11006 11006 11007 11007 11007 11007 11006 11006 11006 11005 11005 11004 11003 11001 10999 10998
10873 10874 10875 10876 10877 10877 10878 10879 10880 10881 10883 10884 10886 10888 10890 10891 10893 10894 10896 10898 10900 10902 10904 10906 10909 10911 10913 10916 10919 10922 10924 10926 10927 10930 10932 10934 10937 10939 10941 10943 10944 10946 10948 10949 10950 10954 10957 10959 10960 10961 10962 10963 10965 10968 10971 10972 10974 10976 10979 10982 10984 10986 10989 10992 10994 10995 10997 10999 11002 11003 11002 11003 11003 11004 11005 11005 11005 11005 11005 11005 11005 11004 11004 11004 11003 11001 10999 10998
10866 10866 10868 10868 10869 10870 10870 10871 10872 10873 10875 10876 10878 10880 10882 10883 10885 10887 10889 10890 10893 10895 10897 10899 10901 10904 10906 10909 10912 10915 10918 10920 10920 10924 10926 10928 10931 10934 10936 10938 10940 10942 10944 10945 10947 10950 10954 10956 10956 10957 10958 10959 10960 10964 10966 10967 10969 10971 10974 10977 10979 10982 10985 10987 10989 10991 10993 10996 10997 10999 10999 11000 11001 11001 11003 11004 11003 11003 11003 11003 11003 11003 11003 11003 11003 11001 11000 10998
10858 10858 10860 10860 10861 10862 10862 10863 10865 10866 10867 10868 10870 10872 10874 10876 10877 10879 10881 10883 10885 10887 10889 10892 10894 10896 10899 10902 10905 10908 10911 10913 10914 10917 10919 10922 10925 10928 10931 10934 10936 10938 10939 10942 10943 10946 10949 10952 10952 10954 10955 10956 10958 10960 10961 10963 10964 10967 10969 10972 10975 10977 10980 10982 10985 10987 10989 10992 10993 10995 10997 10998 10999 10999 11001 11002 11001 11001 11002 11002 11002 11002 11002 11002 11002 11002 11000 10998
10849 10849 10850 10851 10852 10853 10853 10855 10856 10857 10858 10860 10861 10863 10866 10868 10869 10871 10873 10875 10877 10879 10881 10884 10886 10889 10892 10894 10897 10900 10903 10905 10907 10909 10912 10915 10919 10922 10925 10928 10930 10933 10935 10938 10940 10942 10945 10948 10949 10952 10952 10953 10955 10954 10956 10960 10961 10963 10966 10968 10970 10973 10976 10978 10980 10983 10986 10988 10989 10991 10994 10997 10997 10997 10998 10999 10999 10999 11000 11000 11000 11001 11001 11002 11002 11002 11000 10998
10839 10839 10840 10841 10842 10843 10844 10845 10846 10848 10849 10851 10853 10855 10857 10859 10860 10862 10864 10867 10869 10871 10873 10875 10878 10881 10884 10887 10889 10893 10896 10898 10900 10902 10905 10908 10911 10915 10919 10922 10925 10928 10931 10933 10936 10938 10940 10943 10946 10948 10947 10950 10952 10949 10952 10958 10958 10960 10962 10963 10966 10969 10972 10974 10976 10980 10982 10984 10986 10988 10991 10994 10995 10995 10996 10996 10997 10998 10998 10998 10999 11000 11000 11001 11001 11001 11000 10999
10829 10829 10830 10831 10831 10832 10833 10835 10836 10838 10839 10841 10843 10845 10847 10849 10851 10853 10855 10857 10859 10862 10865 10867 10870 10872 10876 10879 10881 10885 10888 10891 10893 10895 10898 10901 10904 10908 10912 10915 10918 10922 10925 10928 10931 10933 10936 10939 10942 10944 10944 10947 10948 10946 10950 10954 10955 10956 10957 10959 10963 10965 10968 10970 10973 10976 10979 10981 10983 10985 10988 10991 10992 10993 10994 10995 10995 10996 10996 10996 10997 10998 10999 11000 11001 11001 11000 10999
10819 10818 10819 10820 10820 10821 10822 10823 10825 10826 10828 10830 10832 10834 10837 10839 10841 10843 10845 10848 10850 10853 10855 10858 10861 10864 10868 10871 10873 10877 10880 10883 10885 10887 10891 10894 10897 10900 10904 10908 10912 10915 10919 10923 10926 10929 10932 10934 10937 10939 10941 10944 10944 10944 10949 10951 10950 10951 10952 10956 10959 10962 10965 10967 10970 10972 10975 10978 10980 10983 10985 10988 10990 10990 10992 10993 10993 10994 10995 10995 10996 10997 10998 10999 11000 11000 11000 10999
10809 10808 10808 10809 10809 10809 10810 10811 10813 10814 10817 10819 10821 10823 10826 10828 10831 10833 10835 10837 10840 10843 10845 10848 10852 10855 10859 10862 10865 10869 10872 10874 10877 10880 10883 10886 10889 10891 10895 10901 10905 10908 10913 10917 10920 10923 10926 10929 10932 10935 10938 10941 10941 10942 10945 10944 10943 10946 10948 10951 10955 10959 10962 10964 10967 10969 10972 10975 10977 10979 10982 10985 10988 10989 10990 10991 10992 10992 10994 10995 10995 10996 10998 10999 11000 11000 11000 10999
10799 10798 10797 10797 10798 10798 10798 10799 10801 10802 10804 10807 10809 10811 10813 10816 10820 10822 10824 10827 10829 10832 10835 10838 10841 10845 10850 10853 10855 10859 10863 10866 10869 10872 10874 10877 10881 10884 10887 10892 10897 10901 10906 10910 10913 10917 10921 10923 10928 10932 10933 10933 10934 10936 10938 10937 10941 10944 10944 10947 10953 10957 10960 10962 10964 10966 10969 10972 10974 10977 10979 10981 10984 10987 10988 10989 10990 10991 10992 10994 10995 10995 10997 10998 10999 10999 10999 10999
10788 10787 10787 10786 10786 10786 10786 10787 10789 10790 10792 10794 10796 10798 10801 10803 10807 10811 10812 10815 10819 10821 10824 10828 10830 10835 10841 10844 10846 10849 10853 10857 10860 10864 10866 10869 10872 10876 10879 10884 10889 10894 10899 10903 10906 10911 10914 10918 10924 10926 10923 10923 10927 10931 10933 10935 10941 10943 10940 10944 10952 10955 10957 10959 10961 10964 10967 10969 10971 10973 10976 10978 10981 10983 10985 10987 10988 10989 10991 10993 10994 10994 10995 10997 10998 10999 10999 10999
10776 10776 10775 10775 10775 10775 10775 10776 10777 10778 10780 10781 10783 10785 10787 10789 10793 10798 10800 10803 10807 10809 10813 10817 10819 10824 10829 10833 10835 10838 10842 10847 10851 10854 10857 10860 10864 10867 10871 10875 10880 10887 10892 10894 10898 10903 10907 10915 10919 10916 10915 10918 10923 10927 10929 10934 10939 10939 10937 10940 10948 10952 10954 10957 10959 10961 10964 10966 10968 10971 10973 10976 10978 10980 10982 10984 10986 10988 10990 10991 10992 10993 10994 10996 10997 10998 10999 10999
10763 10764 10763 10763 10763 10763 10763 10764 10765 10766 10768 10769 10770 10772 10774 10776 10780 10784 10788 10791 10794 10797 10801 10805 10808 10813 10818 10822 10825 10827 10831 10836 10840 10844 10848 10852 10854 10858 10863 10867 10873 10879 10882 10885 10892 10897 10903 10910 10909 10905 10909 10914 10918 10922 10926 10930 10933 10934 10935 10937 10943 10949 10951 10954 10957 10959 10961 10963 10965 10967 10970 10972 10974 10977 10979 10981 10984 10986 10988 10989 10990 10992 10993 10995 10996 10997 10998 11000
10749 10750 10750 10751 10751 10750 10751 10751 10752 10754 10755 10756 10757 10758 10761 10764 10766 10770 10774 10778 10781 10784 10788 10792 10797 10802 10806 10811 10814 10816 10820 10825 10829 10833 10837 10842 10844 10850 10856 10859 10864 10869 10873 10879 10886 10890 10896 10900 10897 10897 10904 10908 10913 10917 10920 10924 10928 10930 10932 10933 10938 10943 10947 10951 10954 10955 10957 10958 10961 10964 10967 10969 10972 10974 10977 10979 10981 10984 10986 10987 10988 10991 10992 10993 10995 10996 10998 10999
10736 10736 10737 10739 10739 10738 10738 10739 10740 10741 10743 10744 10744 10746 10748 10751 10754 10757 10760 10764 10769 10772 10775 10779 10784 10790 10794 10799 10802 10804 10807 10813 10819 10822 10826 10831 10835 10842 10848 10849 10854 10860 10865 10871 10876 10881 10887 10887 10886 10891 10899 10903 10907 10911 10914 10919 10923 10925 10927 10930 10933 10937 10942 10946 10949 10951 10953 10956 10960 10963 10965 10967 10970 10972 10974 10976 10979 10982 10984 10985 10987 10989 10991 10992 10994 10995 10996 10999
10725 10725 10726 10728 10728 10728 10727 10727 10728 10729 10730 10731 10732 10734 10735 10737 10739 10742 10746 10749 10755 10759 10761 10765 10772 10776 10781 10786 10789 10791 10795 10802 10807 10810 10814 10820 10826 10833 10836 10839 10844 10850 10855 10861 10866 10871 10877 10876 10879 10888 10894 10898 10902 10905 10909 10913 10917 10919 10923 10927 10928 10931 10937 10941 10945 10948 10951 10954 10957 10959 10962 10965 10967 10969 10971 10974 10977 10979 10981 10983 10985 10988 10990 10991 10992 10993 10995 10997
10715 10715 10715 10716 10717 10717 10715 10714 10715 10716 10718 10717 10719 10721 10721 10723 10724 10726 10731 10733 10739 10747 10746 10752 10760 10762 10768 10774 10775 10778 10784 10789 10794 10798 10803 10809 10815 10821 10826 10829 10834 10839 10845 10851 10856 10863 10868 10868 10873 10882 10887 10890 10895 10899 10903 10907 10911 10915 10918 10921 10923 10927 10932 10936 10942 10946 10947 10949 10952 10955 10959 10961 10964 10967 10969 10972 10975 10977 10979 10982 10984 10986 10988 10989 10991 10993 10994 10996
10704 10704 10703 10704 10704 10704 10704 10703 10703 10704 10705 10704 10705 10706 10706 10709 10710 10712 10717 10716 10723 10733 10732 10738 10746 10747 10755 10760 10761 10766 10771 10775 10781 10786 10792 10797 10803 10809 10814 10818 10823 10828 10834 10841 10849 10856 10859 10859 10865 10874 10878 10883 10889 10893 10897 10899 10905 10910 10913 10916 10919 10923 10928 10932 10938 10942 10943 10945 10948 10953 10957 10959 10962 10964 10966 10970 10973 10975 10978 10980 10982 10984 10986 10989 10991 10992 10993 10995
10693 10692 10692 10693 10692 10691 10691 10691 10691 10690 10690 10691 10691 10692 10693 10696 10696 10699 10702 10700 10709 10717 10716 10722 10729 10733 10741 10744 10746 10752 10756 10762 10767 10773 10779 10783 10789 10796 10801 10806 10812 10817 10823 10832 10841 10846 10847 10848 10856 10865 10869 10876 10882 10885 10887 10891 10899 10904 10905 10910 10915 10919 10924 10928 10932 10937 10938 10941 10947 10952 10956 10958 10960 10961 10964 10968 10970 10973 10975 10977 10980 10981 10984 10987 10989 10990 10993 10995
10683 10682 10682 10683 10681 10680 10678 10678 10678 10678 10678 10679 10679 10680 10681 10682 10683 10684 10686 10687 10693 10698 10700 10707 10712 10717 10724 10727 10732 10737 10742 10748 10753 10759 10765 10769 10777 10782 10786 10794 10802 10806 10814 10824 10830 10834 10838 10840 10846 10855 10860 10867 10872 10873 10877 10885 10893 10895 10896 10906 10911 10914 10919 10922 10927 10932 10934 10939 10946 10951 10954 10955 10957 10958 10962 10965 10968 10970 10972 10974 10977 10979 10982 10985 10986 10989 10992 10994
10674 10674 10673 10673 10671 10670 10668 10666 10666 10667 10667 10667 10667 10668 10668 10669 10669 10670 10672 10673 10677 10680 10684 10691 10694 10700 10706 10711 10717 10723 10727 10733 10739 10745 10750 10754 10762 10767 10773 10783 10789 10794 10803 10812 10818 10823 10829 10830 10837 10848 10852 10856 10860 10863 10869 10879 10885 10885 10891 10902 10904 10906 10911 10915 10920 10925 10929 10938 10944 10947 10950 10951 10954 10957 10959 10962 10964 10966 10968 10971 10974 10977 10980 10982 10984 10987 10989 10992
10667 10665 10664 10663 10662 10661 10659 10657 10656 10656 10657 10656 10655 10655 10656 10656 10656 10658 10659 10660 10662 10666 10669 10673 10678 10684 10690 10694 10701 10708 10713 10719 10725 10730 10735 10741 10747 10753 10760 10767 10772 10781 10791 10799 10807 10812 10815 10820 10829 10841 10844 10846 10851 10855 10863 10873 10878 10879 10887 10895 10896 10897 10903 10909 10914 10919 10927 10936 10939 10941 10945 10947 10951 10953 10955 10957 10959 10962 10965 10968 10971 10974 10978 10980 10982 10984 10986 10989
10659 10658 10656 10655 10653 10652 10650 10649 10647 10647 10646 10644 10643 10643 10644 10645 10644 10646 10646 10647 10650 10651 10652 10657 10663 10669 10674 10679 10686 10691 10696 10704 10710 10715 10721 10727 10732 10739 10746 10750 10759 10772 10778 10786 10795 10796 10802 10812 10820 10829 10833 10835 10841 10847 10855 10866 10871 10873 10880 10888 10889 10891 10897 10904 10910 10916 10926 10932 10933 10935 10939 10943 10947 10948 10949 10953 10955 10958 10962 10964 10967 10971 10974 10977 10979 10981 10983 10986
10653 10651 10649 10647 10645 10643 10642 10641 10639 10638 10636 10633 10632 10632 10632 10633 10633 10633 10634 10635 10638 10637 10639 10644 10648 10653 10659 10665 10671 10675 10680 10689 10695 10700 10707 10712 10718 10725 10729 10735 10749 10760 10762 10770 10780 10783 10792 10803 10807 10814 10822 10825 10830 10838 10847 10857 10863 10866 10872 10880 10883 10884 10891 10900 10907 10913 10922 10926 10926 10928 10933 10939 10943 10942 10945 10949 10950 10953 10957 10959 10963 10967 10970 10974 10975 10977 10980 10983
10647 10645 10643 10639 10637 10636 10634 10632 10631 10630 10627 10624 10622 10622 10622 10622 10622 10622 10623 10624 10625 10626 10627 10630 10634 10639 10645 10651 10657 10659 10665 10675 10679 10684 10692 10696 10702 10708 10712 10723 10738 10744 10747 10756 10767 10775 10782 10790 10795 10804 10814 10818 10821 10829 10838 10845 10851 10855 10860 10869 10874 10877 10884 10894 10900 10907 10914 10918 10919 10921 10927 10935 10937 10937 10940 10944 10946 10948 10951 10954 10958 10962 10966 10970 10972 10974 10977 10979
10641 10639 10636 10633 10629 10627 10626 10624 10622 10620 10618 10615 10613 10612 10612 10612 10611 10611 10612 10613 10614 10616 10616 10618 10622 10626 10630 10637 10641 10644 10651 10660 10663 10668 10675 10680 10685 10692 10702 10715 10724 10727 10733 10742 10752 10761 10768 10776 10786 10793 10801 10806 10809 10818 10826 10831 10837 10843 10848 10857 10866 10871 10876 10884 10892 10899 10904 10909 10912 10916 10922 10927 10929 10930 10933 10938 10943 10944 10946 10949 10952 10956 10962 10966 10969 10971 10973 10975
10635 10633 10629 10625 10622 10619 10617 10615 10613 10610 10608 10606 10605 10604 10603 10603 10602 10601 10602 10603 10603 10605 10606 10608 10611 10613 10618 10624 10627 10631 10637 10644 10648 10651 10659 10665 10670 10681 10694 10701 10705 10711 10719 10728 10738 10748 10756 10765 10772 10777 10786 10795 10801 10806 10813 10819 10827 10834 10839 10848 10860 10865 10866 10875 10885 10891 10896 10903 10909 10912 10915 10919 10923 10925 10927 10935 10940 10939 10940 10944 10947 10952 10958 10962 10965 10967 10969 10973
10630 10626 10623 10618 10615 10612 10609 10606 10604 10601 10599 10598 10597 10596 10595 10594 10594 10592 10593 10594 10594 10595 10596 10599 10600 10601 10607 10610 10614 10620 10621 10627 10636 10637 10641 10652 10658 10669 10681 10684 10689 10698 10705 10715 10725 10733 10743 10749 10754 10765 10777 10787 10793 10796 10802 10812 10819 10823 10828 10838 10850 10854 10856 10866 10877 10883 10891 10899 10904 10908 10910 10914 10920 10922 10922 10929 10934 10932 10933 10938 10942 10947 10953 10957 10961 10963 10966 10969
10623 10619 10615 10611 10608 10604 10601 10599 10596 10593 10592 10590 10589 10589 10588 10587 10586 10585 10585 10585 10585 10586 10587 10590 10591 10591 10596 10599 10603 10607 10606 10613 10625 10622 10624 10637 10645 10655 10665 10668 10676 10684 10690 10701 10708 10715 10729 10735 10742 10759 10771 10778 10784 10786 10792 10803 10809 10812 10818 10827 10838 10843 10848 10858 10870 10879 10887 10892 10896 10900 10904 10907 10914 10916 10917 10921 10925 10925 10928 10933 10938 10943 10948 10952 10956 10959 10962 10965
10615 10611 10607 10603 10600 10596 10594 10592 10589 10586 10585 10584 10582 10582 10581 10580 10579 10579 10579 10578 10578 10579 10579 10581 10582 10583 10586 10589 10592 10595 10596 10601 10610 10608 10610 10623 10633 10641 10649 10654 10661 10669 10677 10685 10690 10703 10719 10723 10730 10748 10758 10762 10768 10772 10778 10790 10798 10801 10807 10818 10830 10837 10842 10851 10863 10872 10877 10882 10888 10893 10897 10902 10907 10910 10910 10911 10916 10920 10923 10928 10934 10938 10943 10947 10951 10955 10958 10960
10608 10604 10600 10596 10592 10588 10586 10585 10583 10580 10578 10577 10576 10575 10575 10574 10573 10572 10572 10572 10572 10573 10573 10573 10575 10575 10577 10578 10581 10586 10586 10587 10594 10596 10598 10608 10620 10628 10633 10639 10647 10655 10663 10669 10676 10691 10704 10705 10715 10733 10742 10745 10752 10760 10769 10779 10787 10792 10799 10813 10825 10831 10837 10845 10853 10862 10867 10873 10880 10885 10892 10897 10898 10901 10903 10902 10906 10914 10917 10922 10928 10932 10936 10941 10946 10950 10953 10956
10601 10597 10593 10589 10585 10582 10580 10578 10577 10574 10573 10572 10570 10569 10569 10568 10568 10566 10566 10566 10566 10566 10567 10566 10568 10569 10568 10569 10572 10576 10576 10576 10581 10584 10586 10595 10605 10612 10618 10625 10635 10642 10648 10655 10661 10672 10682 10690 10703 10716 10723 10730 10739 10750 10759 10766 10775 10783 10788 10800 10812 10820 10828 10833 10842 10855 10862 10867 10871 10877 10885 10887 10886 10893 10898 10895 10900 10908 10910 10914 10921 10926 10929 10934 10940 10944 10948 10952
10593 10590 10586 10582 10579 10576 10574 10573 10571 10569 10567 10566 10565 10564 10563 10563 10562 10561 10560 10561 10560 10560 10560 10560 10561 10562 10561 10561 10563 10566 10566 10567 10569 10571 10575 10583 10589 10597 10606 10613 10619 10625 10631 10638 10643 10651 10667 10682 10694 10702 10709 10719 10728 10736 10745 10751 10760 10766 10770 10781 10796 10805 10812 10819 10832 10846 10852 10857 10862 10868 10874 10875 10880 10891 10894 10891 10895 10899 10902 10908 10914 10919 10923 10928 10934 10939 10942 10947
10586 10583 10579 10576 10573 10571 10569 10567 10565 10564 10562 10561 10560 10559 10558 10558 10557 10556 10555 10555 10554 10554 10554 10554 10554 10554 10554 10553 10553 10556 10557 10557 10558 10559 10563 10570 10575 10584 10595 10597 10600 10608 10614 10619 10626 10641 10660 10673 10682 10688 10694 10705 10716 10724 10733 10739 10743 10750 10760 10773 10788 10797 10803 10812 10824 10832 10837 10844 10851 10857 10864 10869 10878 10888 10887 10885 10887 10889 10894 10901 10906 10912 10917 10923 10929 10933 10937 10942
10578 10576 10573 10570 10567 10565 10564 10561 10560 10558 10557 10556 10555 10554 10554 10553 10552 10551 10550 10550 10549 10548 10548 10547 10547 10547 10548 10547 10545 10547 10548 10547 10548 10548 10550 10557 10562 10572 10583 10583 10585 10593 10600 10607 10618 10635 10647 10654 10664 10671 10676 10690 10705 10713 10722 10730 10737 10748 10760 10771 10784 10793 10797 10803 10812 10817 10824 10836 10842 10849 10858 10864 10874 10882 10881 10879 10878 10879 10886 10893 10896 10904 10911 10916 10922 10927 10932 10939
10572 10570 10568 10565 10563 10561 10559 10557 10555 10553 10552 10551 10550 10550 10549 10548 10547 10546 10545 10544 10543 10543 10542 10541 10540 10540 10540 10540 10538 10539 10538 10538 10538 10538 10540 10546 10551 10561 10571 10572 10572 10580 10590 10598 10608 10620 10629 10637 10649 10657 10664 10679 10691 10695 10702 10712 10722 10734 10745 10758 10771 10778 10782 10790 10798 10806 10819 10832 10837 10843 10851 10856 10864 10872 10874 10872 10866 10864 10874 10884 10890 10899 10907 10912 10918 10923 10930 10936
10567 10565 10563 10560 10558 10556 10554 10552 10551 10549 10548 10547 10546 10546 10545 10544 10543 10542 10541 10540 10538 10537 10536 10534 10534 10533 10533 10533 10532 10531 10530 10529 10528 10528 10530 10535 10541 10550 10559 10560 10561 10569 10579 10585 10592 10604 10616 10627 10637 10644 10654 10669 10677 10680 10687 10697 10705 10712 10726 10743 10754 10759 10767 10775 10783 10797 10815 10823 10826 10835 10843 10845 10851 10861 10866 10860 10850 10850 10864 10881 10891 10899 10905 10912 10917 10922 10929 10932
10562 10560 10558 10556 10553 10551 10549 10547 10546 10545 10544 10543 10542 10541 10541 10540 10539 10538 10536 10535 10533 10532 10530 10528 10527 10527 10526 10525 10524 10523 10522 10520 10519 10519 10521 10525 10532 10539 10545 10547 10550 10559 10568 10573 10581 10592 10603 10613 10622 10630 10642 10653 10658 10663 10675 10688 10696 10703 10718 10733 10740 10745 10754 10761 10773 10794 10808 10811 10819 10830 10833 10836 10845 10856 10859 10850 10840 10845 10861 10877 10889 10895 10899 10906 10910 10915 10921 10922
10557 10555 10553 10551 10549 10546 10544 10542 10541 10540 10539 10538 10538 10537 10536 10536 10535 10534 10532 10530 10529 10527 10525 10523 10521 10520 10518 10517 10516 10516 10514 10513 10511 10510 10511 10515 10521 10526 10532 10535 10538 10546 10554 10560 10570 10580 10589 10599 10609 10618 10628 10634 10638 10650 10666 10678 10685 10693 10708 10721 10726 10732 10742 10753 10771 10788 10793 10799 10812 10819 10819 10827 10838 10843 10846 10844 10838 10846 10861 10870 10880 10889 10893 10899 10904 10907 10911 10913
10552 10550 10548 10546 10544 10542 10540 10538 10537 10536 10535 10534 10533 10532 10532 10531 10530 10529 10527 10525 10523 10521 10519 10517 10514 10513 10511 10509 10508 10507 10506 10505 10502 10501 10502 10505 10509 10514 10520 10523 10527 10534 10540 10546 10556 10566 10576 10588 10597 10605 10614 10619 10627 10647 10663 10669 10673 10682 10695 10706 10713 10722 10736 10753 10768 10776 10782 10793 10803 10804 10809 10820 10825 10827 10840 10848 10842 10844 10855 10860 10867 10880 10889 10894 10898 10901 10905 10907
10547 10544 10543 10541 10539 10537 10535 10534 10532 10532 10530 10530 10529 10528 10527 10527 10525 10524 10522 10520 10518 10516 10513 10511 10508 10506 10504 10502 10500 10498 10497 10496 10494 10492 10492 10495 10499 10503 10507 10511 10516 10521 10527 10533 10541 10549 10560 10573 10581 10590 10600 10607 10621 10641 10652 10656 10663 10671 10681 10690 10699 10713 10732 10749 10761 10767 10778 10789 10793 10795 10803 10814 10817 10824 10844 10853 10838 10833 10842 10848 10855 10868 10879 10887 10891 10895 10900 10903
10542 10539 10537 10535 10534 10532 10531 10529 10528 10527 10526 10525 10525 10523 10523 10522 10521 10520 10518 10515 10513 10510 10508 10506 10503 10500 10497 10495 10493 10490 10489 10488 10486 10484 10483 10485 10489 10492 10494 10500 10504 10508 10514 10521 10527 10534 10546 10558 10566 10575 10587 10598 10612 10624 10632 10641 10648 10654 10664 10675 10686 10704 10723 10737 10747 10755 10768 10779 10784 10790 10799 10807 10811 10821 10841 10846 10827 10821 10834 10840 10845 10856 10867 10878 10884 10888 10893 10898
10538 10535 10533 10531 10529 10527 10526 10525 10524 10523 10523 10522 10520 10519 10518 10517 10516 10515 10513 10511 10509 10506 10503 10501 10498 10495 10491 10488 10486 10483 10481 10480 10478 10477 10475 10476 10479 10481 10484 10489 10494 10498 10503 10508 10515 10523 10533 10543 10551 10562 10576 10588 10595 10601 10612 10622 10626 10633 10650 10664 10678 10697 10713 10723 10732 10742 10754 10764 10772 10782 10791 10798 10802 10814 10832 10835 10819 10816 10829 10835 10838 10845 10852 10866 10878 10883 10889 10895